Regional Weather Roundup
Issued by NWS

Home | Current Version | Previous Version | Graphics & Text | Print | Product List | Glossary On
Versions: 1 2 3 4 5 6 7 8 9 10 11 12 13 14 15 16 17 18 19 20 21 22 23 24 25 26 27 28 29 30 31 32 33 34 35 36 37 38 39 40 41 42 43 44 45 46 47 48 49 50
341
ASUS43 KDMX 300708
RWRIA

WEATHER ROUNDUP FOR IOWA
NATIONAL WEATHER SERVICE DES MOINES IA
200 AM CDT SAT APR 30 2016

NOTE: "FAIR" INDICATES FEW OR NO CLOUDS BELOW 12,000 FEET WITH NO
SIGNIFICANT WEATHER AND/OR OBSTRUCTIONS TO VISIBILITY.

* - THESE STATIONS ARE NOT NWS STATIONS...THUS NOT UNDER NWS
QUALITY CONTROL.  THEY ALSO DO NOT REPORT WEATHER SUCH
AS PRECIPITATION OR FOG.

IAZ001>003-012>014-020>022-031>034-043>046-300800-
   NORTHWEST IOWA

CITY           SKY/WX    TMP DP  RH WIND       PRES   REMARKS
CARROLL *      CLOUDY    45  43  93 E17G25    29.94F
CHEROKEE *     CLOUDY    44  41  91 NE12      29.98F
DENISON *      CLOUDY    45  41  87 E20G31    29.90F
LE MARS *      CLOUDY    45  41  87 NE13G18   29.97F
ORANGE CITY *  DRIZZLE   45  41  87 E10       29.98F
SHELDON *      CLOUDY    43  41  93 NE10      29.99F
SIOUX CITY     CLOUDY    46  39  76 E14       29.94F
SPENCER        CLOUDY    45  39  79 E13       30.02F
STORM LAKE *   CLOUDY    43  41  93 E20       29.98F
$$

IAZ055>058-069>071-079>083-090>094-300800-
   SOUTHWEST IOWA

CITY           SKY/WX    TMP DP  RH WIND       PRES   REMARKS
ATLANTIC *     CLOUDY    46  43  87 NE16G24   29.87F
AUDUBON *      LGT RAIN  45  41  87 NE18G25   29.90F
CLARINDA *       N/A    N/A N/A N/A MISG        N/A
COUNCIL BLFS * LGT RAIN  45  45 100 NE20G30   29.84F
CRESTON *      CLOUDY    45  45 100 E24G32    29.86F FOG
HARLAN  *      CLOUDY    45  43  93 E20G28    29.92F
LAMONI         CLOUDY    46  45  96 NE15G29   29.83F
RED OAK *      LGT RAIN  46  45  93 NE22      29.82F
SHENANDOAH *   CLOUDY    46  46 100 NE18G26   29.80F
$$

IAZ047>049-059>061-072>074-084-300800-
   CENTRAL IOWA

CITY           SKY/WX    TMP DP  RH WIND       PRES   REMARKS
AMES           LGT RAIN  46  41  82 E16       29.98F
ANKENY *       LGT RAIN  46  45  93 NE14G21   29.94F
BOONE *        CLOUDY    45  41  87 E17       29.96F
CHARITON *     CLOUDY    46  43  87 E17G25    29.89F
DES MOINES     CLOUDY    47  41  80 E15G26    29.92F
GRINNELL*      CLOUDY    45  41  87 NE16      29.98F
KNOXVILLE *    CLOUDY    46  43  87 E14G21    29.91F
MARSHALLTOWN   CLOUDY    45  40  82 E17       29.99F
NEWTON *       CLOUDY    45  45 100 E14G22    29.96F
PELLA *        CLOUDY    46  43  90 E9G16     29.95F
$$

IAZ004>006-015-016-023>025-035-036-300800-
   NORTH CENTRAL IOWA

CITY           SKY/WX    TMP DP  RH WIND       PRES   REMARKS
ALGONA *       CLOUDY    46  41  81 E10       30.03F
CLARION *      CLOUDY    45  43  93 E14       30.01F
ESTHERVILLE    CLOUDY    42  40  92 NE8       30.04F
FORT DODGE *   CLOUDY    45  37  76 NE12      30.00F
MASON CITY     PTCLDY    43  40  89 E9        30.05F
FOREST CITY *    N/A     45  37  76 E6        30.04F
WEBSTER CITY * CLOUDY    45  43  93 E14       29.98F
IOWA FALLS *     N/A     46  41  81 E15       30.02F
$$

IAZ007>011-017>019-026>030-037>042-050>054-066-300800-
   NORTHEAST IOWA

CITY           SKY/WX    TMP DP  RH WIND       PRES   REMARKS
CEDAR RAPIDS   CLOUDY    45  42  89 NE12      30.01S
CHARLES CITY * MOCLDY    43  43 100 NE7       30.06F
CLINTON *      CLOUDY    46  41  82 E14       30.04F
DECORAH *      CLOUDY    43  39  87 NE6       30.06F
DUBUQUE        CLOUDY    43  40  89 NE8       30.04F
MONTICELLO *   CLOUDY    45  41  87 E7        30.04F
OELWEIN *      CLOUDY    43  43 100 NE8       30.05F
WATERLOO       CLOUDY    44  40  85 NE9       30.03F
$$

IAZ064-065-067-068-078-300800-
   EAST CENTRAL IOWA

CITY           SKY/WX    TMP DP  RH WIND       PRES   REMARKS
DAVENPORT      CLOUDY    46  40  79 E12       30.03F
IOWA CITY      CLOUDY    47  41  80 NE6       30.02F
MT. PLEASANT * CLOUDY    49  46  90 NE15      29.95F
MUSCATINE *    CLOUDY    48  43  81 E8        30.00F
QUAD CITIES    CLOUDY    48  40  73 E16       30.01F
$$

IAZ062-063-075>077-085>089-095>099-300800-
   SOUTHEAST IOWA

CITY           SKY/WX    TMP DP  RH WIND       PRES   REMARKS
BURLINGTON     CLOUDY    48  44  86 E17       29.95F
FAIRFIELD *    CLOUDY    46  43  87 NE16G24   29.94F
FORT MADISON * CLOUDY    46  45  93 E14G23    29.94F
KEOKUK *       CLOUDY    48  45  87 E17       29.92F
OSKALOOSA *    CLOUDY    45  43  93 E18       29.94F
OTTUMWA        CLOUDY    46  43  89 E17G24    29.94F
WASHINGTON *   CLOUDY    46  45  93 E15       29.99F
$$

ABBREVIATIONS USED IN REMARKS
   TC - TEMPERATURES IN CELSIUS
  WCI - WIND CHILL INDEX
   HX - HEAT INDEX
  VSB - VISIBILITY
$$





USA.gov is the U.S. government's official web portal to all federal, state and local government web resources and services.